Terminal Aerodrome Forecast
Issued by NWS Pueblo, CO

Home | Current Version | Previous Version | Text Only | Print | Product List | Glossary On
Versions: 1 2 3 4 5 6 7 8 9 10 11 12 13 14 15 16 17 18 19 20 21 22 23 24 25 26 27 28 29 30 31 32 33 34 35 36 37 38 39 40
000
FTUS45 KPUB 221720
TAFPUB
TAF
KPUB 221720Z 2218/2318 29011KT P6SM FEW200
     FM222200 14007KT P6SM SCT200
     FM230300 VRB06KT P6SM SCT100 BKN150
     FM231600 23010KT P6SM SCT100 SCT200=

USA.gov is the U.S. government's official web portal to all federal, state and local government web resources and services.